Home > Weather > Burg > Past weeks

Flag for Germany Past Weather in Burg, Saxony-Anhalt, Germany — Yesterday and Last 2 Weeks

Now
66 °F

Passing clouds.


Feels Like: 66 °F
Forecast: 48 / 69 °F
Wind: 5 mph from Northwest

Location: Braunschweig Wolfsburg

Current Time: May 26, 2016 at 6:29:54 PM

Latest Report: May 26, 2016 at 5:50 PM


Visibility: N/A

Pressure: 30.01 "Hg

Humidity: 52%

Dew Point: 48 °F

Location of BurgLocation

Past Weather in Burg — Graph

°F

Burg Temperature Yesterday

Maximum temperature yesterday: 57 °F (at 3:20 PM)
Minimum temperature yesterday: 52 °F (at 6:50 AM)
Average temperature yesterday: 55 °F

High & Low Weather Summary for the Past Weeks

 TemperatureHumidityPressure
High84 °F (May 22, 3:20 PM)100% (May 24, 6:50 AM)30.07 "Hg (May 24, 6:50 AM)
Low41 °F (May 16, 7:20 AM)23% (May 13, 1:20 PM)29.53 "Hg (May 12, 5:50 PM)
Average61 °F61%29.85 "Hg
* Reported May 11 4:20 PM — May 26 4:50 PM, Burg, Weather by CustomWeather, © 2016

Note: Actual official high and low records may vary slightly from our data, if they occured in-between our weather recording intervals... More about our weather records

Advertising

Burg Weather History for the Previous 24 Hours

Scroll right to see more
 ConditionsComfort  
Time TempWeatherWind HumidityBarometerVisibility
4:50 PM
Thu, May 26
68 °FScattered clouds.7 mph49%30.01 "HgN/A
4:20 PM68 °FScattered clouds.10 mph49%30.01 "HgN/A
3:50 PM66 °FScattered clouds.8 mph52%30.04 "HgN/A
3:20 PM66 °FBroken clouds.6 mph52%30.04 "HgN/A
2:50 PM66 °FScattered clouds.3 mph52%30.04 "HgN/A
1:50 PM64 °FPartly sunny.8 mph56%30.04 "HgN/A
1:20 PM63 °FPartly sunny.7 mph59%30.04 "HgN/A
12:50 PM64 °FBroken clouds.9 mph56%30.04 "HgN/A
12:20 PM64 °FScattered clouds.7 mph60%30.04 "HgN/A
11:50 AM64 °FScattered clouds.9 mph56%30.04 "HgN/A
11:20 AM63 °FScattered clouds.6 mph59%30.04 "HgN/A
10:50 AM63 °FScattered clouds.8 mph64%30.04 "HgN/A
10:20 AM61 °FScattered clouds.8 mph63%30.04 "HgN/A
9:50 AM59 °FPassing clouds.7 mph72%30.04 "HgN/A
9:20 AM59 °FPassing clouds.7 mph77%30.04 "HgN/A
8:50 AM57 °FSunny.7 mph82%30.04 "Hg10 mi
8:20 AM57 °FClear.6 mph77%30.04 "Hg6 mi
7:50 AM55 °FClear.2 mph88%30.01 "Hg4 mi
7:20 AM54 °FFog.No wind94%30.01 "Hg3 mi
6:50 AM50 °FFog.No wind94%30.01 "Hg3 mi
9:20 PM
Wed, May 25
55 °FOvercast.No wind82%30.01 "HgN/A
8:50 PM55 °FOvercast.3 mph82%29.98 "HgN/A
8:20 PM57 °FOvercast.No wind77%29.98 "HgN/A
7:50 PM57 °FOvercast.3 mph77%29.98 "HgN/A
7:20 PM57 °FOvercast.3 mph77%29.98 "HgN/A
6:50 PM57 °FOvercast.2 mph77%29.98 "HgN/A
6:20 PM57 °FOvercast.5 mph72%29.98 "HgN/A
Weather by CustomWeather, © 2016

See weather overviewHow to use our weather pages